F4FEB-13 Weather Reports


time (UTC)temp
F
wind
direction
speed
knots
gust
knots
rain 1hr
in
rain 24hr
in
rain mn
in
humidity
%
barometer
mb
20260505184417 53 275 1.7 6.1 0.00 0.24 0.24 84 1008.4
20260505183917 53 257 4.3 5.2 0.00 0.24 0.24 84 1008.5
20260505183417 53 257 4.3 6.1 0.00 0.24 0.24 85 1008.4
20260505182921 53 240 2.6 7.8 0.00 0.24 0.24 85 1008.4
20260505182917 53 240 2.6 7.8 0.00 0.24 0.24 85 1008.4
20260505182417 53 240 3.5 7.0 0.00 0.24 0.24 86 1008.3
20260505181917 53 255 6.1 6.1 0.00 0.24 0.24 86 1008.3
20260505181421 53 247 2.6 5.2 0.00 0.24 0.24 86 1008.3
20260505181417 53 247 2.6 5.2 0.00 0.24 0.24 86 1008.3
20260505180917 53 240 2.6 6.1 0.00 0.24 0.24 85 1008.2
20260505180417 53 267 5.2 6.1 0.00 0.24 0.24 85 1008.1
20260505175917 54 262 3.5 10.4 0.00 0.24 0.24 85 1008.2
20260505175417 54 257 5.2 9.6 0.00 0.24 0.24 84 1008.2
20260505174917 54 234 7.0 9.6 0.00 0.24 0.24 84 1008.2
20260505174423 54 271 1.7 8.7 0.00 0.24 0.24 86 1008.2
20260505174417 54 271 1.7 8.7 0.00 0.24 0.24 86 1008.2
20260505173917 54 241 6.1 7.8 0.00 0.24 0.24 86 1008.3
20260505173417 54 177 2.6 8.7 0.00 0.24 0.24 86 1008.4
20260505172922 54 244 5.2 9.6 0.00 0.24 0.24 86 1008.4
20260505172917 54 244 5.2 9.6 0.00 0.24 0.24 86 1008.4
20260505172417 55 277 3.5 10.4 0.01 0.24 0.24 86 1008.3
20260505171918 55 227 6.1 13.9 0.01 0.24 0.24 87 1008.5
20260505171421 55 226 4.3 8.7 0.01 0.24 0.24 88 1008.3
20260505171418 55 226 4.3 8.7 0.01 0.24 0.24 88 1008.3
20260505170918 55 168 4.3 8.7 0.01 0.24 0.24 87 1008.1
20260505170418 55 250 4.3 7.8 0.01 0.24 0.24 86 1008.0
20260505165920 55 232 3.5 11.3 0.01 0.24 0.24 86 1008.0
20260505165918 55 232 3.5 11.3 0.01 0.24 0.24 86 1008.0
20260505165418 55 267 4.3 16.5 0.01 0.24 0.24 87 1008.1
20260505164918 56 165 7.0 16.5 0.02 0.24 0.24 87 1008.2
20260505164421 56 246 8.7 16.5 0.06 0.24 0.24 87 1008.3
20260505164418 56 246 8.7 16.5 0.06 0.24 0.24 87 1008.3
20260505163918 56 158 7.8 14.8 0.07 0.24 0.24 88 1008.3
20260505163418 56 174 4.3 13.0 0.07 0.24 0.24 87 1008.3
20260505162918 56 239 6.1 9.6 0.07 0.24 0.24 90 1008.2
20260505162418 56 142 5.2 13.9 0.06 0.23 0.23 90 1008.2
20260505161918 56 171 3.5 12.2 0.06 0.23 0.23 91 1008.2
20260505161421 57 243 3.5 6.1 0.06 0.23 0.23 90 1008.2
20260505161418 57 243 3.5 6.1 0.06 0.23 0.23 90 1008.2
20260505160918 56 247 4.3 7.8 0.06 0.23 0.23 87 1008.0
20260505160418 57 270 1.7 6.1 0.06 0.23 0.23 85 1007.8
20260505152921 60 298 2.6 13.0 0.00 0.18 0.17 74 1007.7
20260505152918 60 298 2.6 13.0 0.00 0.18 0.17 74 1007.7
20260505152418 60 236 11.3 11.3 0.00 0.18 0.17 75 1007.6
20260505151918 60 240 5.2 7.8 0.00 0.18 0.17 78 1007.6
20260505151421 60 260 1.7 8.7 0.00 0.18 0.17 76 1007.7
20260505151418 60 260 1.7 8.7 0.00 0.18 0.17 76 1007.7
20260505150918 61 251 7.8 9.6 0.00 0.18 0.17 75 1007.7
20260505150418 61 248 4.3 9.6 0.00 0.18 0.17 73 1007.7
20260505140418 60 248 4.3 9.6 0.00 0.18 0.17 83 1007.8
20260505124918 55 182 3.5 9.6 0.08 0.16 0.15 97 1008.6
20260505124422 56 216 2.6 7.0 0.08 0.16 0.15 97 1008.6
20260505124418 56 216 2.6 7.0 0.08 0.16 0.15 97 1008.6
20260505123918 56 222 4.3 7.8 0.07 0.15 0.14 96 1008.6
20260505123418 56 243 4.3 6.1 0.06 0.14 0.13 95 1008.6
20260505122922 56 240 1.7 8.7 0.05 0.13 0.12 94 1008.6
20260505122918 56 240 1.7 8.7 0.05 0.13 0.12 94 1008.6
20260505122418 56 254 1.7 8.7 0.03 0.11 0.10 92 1008.6
20260505121918 56 255 8.7 8.7 0.02 0.10 0.09 91 1008.6
20260505121422 57 277 7.8 12.2 0.02 0.09 0.08 88 1008.6
20260505121418 57 277 7.8 12.2 0.02 0.09 0.08 88 1008.6
20260505120918 58 278 7.8 10.4 0.01 0.08 0.07 85 1008.6
20260505120418 58 272 5.2 8.7 0.01 0.08 0.07 82 1008.5
20260505115921 59 298 1.7 7.0 0.01 0.08 0.07 80 1008.4
20260505115918 59 298 1.7 7.0 0.01 0.08 0.07 80 1008.4
20260505115418 59 299 3.5 6.1 0.01 0.08 0.07 78 1008.3
20260505114918 59 284 1.7 5.2 0.01 0.08 0.07 77 1008.3
20260505114421 59 303 0.0 4.3 0.01 0.08 0.07 80 1008.3
20260505114418 59 303 0.0 4.3 0.01 0.08 0.07 80 1008.3
20260505113918 59 285 2.6 4.3 0.01 0.08 0.07 82 1008.2
20260505113418 58 267 2.6 7.0 0.01 0.08 0.07 81 1008.3
20260505112921 58 253 3.5 7.8 0.01 0.08 0.07 83 1008.3
20260505112918 58 253 3.5 7.8 0.01 0.08 0.07 83 1008.3
20260505112419 58 243 0.9 5.2 0.01 0.08 0.07 84 1008.4
20260505111919 58 160 3.5 7.0 0.00 0.00 0.00
20260505111418 58 296 0.0 3.5 0.00 0.07 0.06 84 1008.4
20260505110918 59 295 2.6 4.3 0.00 0.07 0.06 83 1008.3
20260505110418 59 312 2.6 4.3 0.00 0.07 0.06 79 1008.3
20260505101918 58 241 3.5 5.2 0.00 0.07 0.06 83 1008.6
20260505101418 58 161 1.7 5.2 0.00 0.07 0.06 85 1008.6
20260505100919 58 109 0.0 0.0 0.00 0.07 0.06 87 1008.6
20260505100418 57 109 0.0 0.0 0.00 0.07 0.06 87 1008.6
20260505095921 57 109 0.0 0.0 0.00 0.07 0.06 88 1008.6
20260505095919 57 109 0.0 0.0 0.00 0.07 0.06 88 1008.6
20260505095418 57 109 0.0 0.0 0.00 0.07 0.06 89 1008.7
20260505094918 57 109 0.0 2.6 0.00 0.07 0.06 89 1008.7
20260505094423 57 106 0.0 2.6 0.00 0.07 0.06 91 1008.7
20260505094418 57 106 0.0 2.6 0.00 0.07 0.06 91 1008.7
20260505093919 56 102 0.0 2.6 0.00 0.07 0.06 91 1008.7
20260505093419 56 97 0.0 0.0 0.00 0.07 0.06 93 1008.7
20260505092919 56 122 0.0 1.7 0.00 0.07 0.06 93 1008.7
20260505092420 56 7 0.0 0.0 0.00 0.07 0.06 95 1008.7
20260505091919 55 7 0.0 0.0 0.00 0.07 0.06 95 1008.7
20260505091422 55 7 0.0 0.0 0.00 0.07 0.06 95 1008.7
20260505091419 55 7 0.0 0.0 0.00 0.07 0.06 95 1008.7
20260505090919 55 7 0.0 0.0 0.00 0.07 0.06 95 1008.7
20260505090419 55 7 0.0 0.0 0.00 0.07 0.06 96 1008.7
20260505085919 55 7 0.0 1.7 0.00 0.07 0.06 97 1008.7
20260505085419 54 358 0.0 4.3 0.00 0.07 0.06 97 1008.7
20260505084919 54 326 3.5 6.1 0.00 0.07 0.06 97 1008.6
20260505084423 54 331 4.3 4.3 0.00 0.07 0.06 98 1008.6
20260505084419 54 331 4.3 4.3 0.00 0.07 0.06 98 1008.6
20260505083919 54 354 0.9 6.1 0.00 0.07 0.06 98 1008.6
20260505083419 54 25 0.0 4.3 0.00 0.07 0.06 98 1008.6
20260505082919 53 329 2.6 4.3 0.00 0.07 0.06 98 1008.5
20260505082419 53 348 3.5 5.2 0.00 0.07 0.06 98 1008.6
20260505081919 53 343 2.6 6.1 0.00 0.07 0.06 98 1008.6
20260505081419 53 15 2.6 3.5 0.00 0.07 0.06 97 1008.7
20260505080919 53 8 0.0 4.3 0.00 0.07 0.06 97 1008.6
20260505080419 54 36 0.0 1.7 0.00 0.07 0.06 97 1008.7
20260505075922 54 9 0.0 2.6 0.00 0.07 0.06 98 1008.7
20260505075919 54 9 0.0 2.6 0.00 0.07 0.06 98 1008.7
20260505075419 54 23 0.0 2.6 0.00 0.07 0.06 98 1008.6
20260505074919 54 19 0.0 2.6 0.01 0.07 0.06 98 1008.7
20260505074422 54 351 0.0 2.6 0.01 0.07 0.06 96 1008.8
20260505074419 54 351 0.0 2.6 0.01 0.07 0.06 96 1008.8
20260505073919 54 8 0.0 3.5 0.01 0.07 0.06 95 1008.9
20260505073419 55 215 0.0 0.0 0.01 0.07 0.06 94 1008.9
20260505072919 54 215 0.0 0.0 0.01 0.07 0.06 93 1009.0
20260505072419 54 215 0.0 0.0 0.01 0.07 0.06 94 1009.0
20260505071919 54 215 0.0 0.0 0.01 0.07 0.06 94 1009.1
20260505071419 53 215 0.0 0.0 0.01 0.07 0.06 95 1009.1
20260505070919 53 215 0.0 0.0 0.01 0.07 0.06 96 1009.2
20260505070419 53 215 0.0 0.0 0.01 0.07 0.06 96 1009.2
20260505065922 53 215 0.0 0.0 0.01 0.07 0.06 97 1009.3
20260505065919 53 215 0.0 0.0 0.01 0.07 0.06 97 1009.3
20260505065419 53 215 0.0 0.0 0.01 0.07 0.06 97 1009.3
20260505064919 53 215 0.0 0.0 0.00 0.06 0.05 97 1009.3
20260505064422 53 215 0.0 0.0 0.00 0.06 0.05 97 1009.4
20260505064419 53 215 0.0 0.0 0.00 0.06 0.05 97 1009.4
20260505063919 52 215 0.0 0.0 0.00 0.06 0.05 97 1009.5
20260505063419 52 215 0.0 0.0 0.00 0.06 0.05 97 1009.6
20260505062919 52 215 0.0 0.0 0.00 0.06 0.05 97 1009.6
20260505062419 52 215 0.0 0.0 0.00 0.06 0.05 98 1009.6
20260505061919 52 215 0.0 0.0 0.00 0.06 0.05 98 1009.8
20260505061419 52 215 0.0 0.0 0.00 0.06 0.05 98 1009.8
20260505060919 52 215 0.0 0.0 0.01 0.06 0.05 98 1009.8
20260505060419 52 215 0.0 0.0 0.01 0.06 0.05 98 1009.8
20260505055923 52 215 0.0 0.0 0.01 0.06 0.05 98 1009.8
20260505055919 52 215 0.0 0.0 0.01 0.06 0.05 98 1009.8
20260505055419 51 215 0.0 0.0 0.01 0.06 0.05 98 1009.8
20260505054919 51 215 0.0 0.0 0.01 0.06 0.05 98 1009.8
20260505054422 51 215 0.0 0.0 0.01 0.06 0.05 98 1009.8
20260505054419 51 215 0.0 0.0 0.01 0.06 0.05 98 1009.8
20260505053919 51 215 0.0 0.0 0.01 0.06 0.05 98 1009.8
20260505053419 51 215 0.0 0.0 0.02 0.06 0.05 98 1009.9
20260505052922 51 215 0.0 0.0 0.02 0.06 0.05 98 1009.9
20260505052919 51 215 0.0 0.0 0.02 0.06 0.05 98 1009.9
20260505052419 51 215 0.0 0.0 0.03 0.06 0.05 98 1009.9
20260505051919 51 215 0.0 0.0 0.03 0.06 0.05 98 1009.8
20260505051422 51 215 0.0 0.0 0.03 0.06 0.05 98 1009.8
20260505051420 51 215 0.0 0.0 0.03 0.06 0.05 98 1009.8
20260505050919 51 215 0.0 0.0 0.02 0.05 0.04 98 1009.8
20260505050419 50 215 0.0 0.0 0.03 0.05 0.04 98 1009.9
20260505041423 50 206 0.9 3.5 0.02 0.03 0.02 97 1010.2
20260505041419 50 206 0.9 3.5 0.02 0.03 0.02 97 1010.2
20260505040919 50 203 0.9 1.7 0.02 0.03 0.02 97 1010.3
20260505040419 50 251 0.9 1.7 0.01 0.02 0.01 97 1010.3
20260505035922 50 244 0.9 3.5 0.01 0.02 0.01 97 1010.3
20260505035919 50 244 0.9 3.5 0.01 0.02 0.01 97 1010.3
20260505035419 50 236 1.7 3.5 0.01 0.02 0.01 96 1010.3
20260505034919 50 251 1.7 4.3 0.01 0.02 0.01 96 1010.3
20260505034419 50 270 0.9 4.3 0.01 0.02 0.01 96 1010.3
20260505033919 50 255 1.7 5.2 0.00 0.01 0.00 96 1010.3
20260505033419 50 225 1.7 7.0 0.00 0.01 0.00 95 1010.3
20260505032919 50 246 7.0 7.0 0.00 0.01 0.00 95 1010.2
20260505032419 50 233 2.6 6.1 0.00 0.01 0.00 95 1010.2
20260505031919 50 216 3.5 7.0 0.00 0.01 0.00 95 1010.3
20260505031419 50 292 4.3 7.0 0.00 0.01 0.00 96 1010.3
20260505030919 50 247 3.5 6.1 0.00 0.01 0.00 96 1010.3
20260505030419 50 248 2.6 7.0 0.00 0.01 0.00 97 1010.4
20260505025919 50 254 3.5 7.8 0.00 0.01 0.00 97 1010.5
20260505025419 50 260 2.6 6.1 0.00 0.01 0.00 98 1010.5
20260505024919 50 254 2.6 7.0 0.00 0.01 0.00 98 1010.5
20260505024419 50 270 1.7 6.1 0.00 0.01 0.00 97 1010.5
20260505023919 50 254 1.7 5.2 0.00 0.01 0.00 96 1010.5
20260505023419 51 260 3.5 4.3 0.00 0.01 0.00 96 1010.6
20260505022919 51 213 0.0 4.3 0.00 0.01 0.00 95 1010.5
20260505022419 51 253 3.5 4.3 0.00 0.01 0.00 93 1010.6
20260505021919 51 243 2.6 3.5 0.00 0.01 0.00 92 1010.6
20260505021419 51 237 1.7 2.6 0.00 0.01 0.00 92 1010.6
20260505020919 51 0 0.0 0.0 0.00 0.01 0.00 91 1010.6
20260505020420 51 0 0.0 0.0 0.00 0.01 0.00 91 1010.5
20260505015920 51 0 0.0 0.0 0.00 0.01 0.00 91 1010.5
20260505015420 51 0 0.0 0.0 0.00 0.01 0.00 91 1010.4
20260505014920 51 0 0.0 0.0 0.00 0.01 0.00 91 1010.5
20260505014420 51 0 0.0 0.0 0.00 0.01 0.00 91 1010.5
20260505013920 51 0 0.0 0.0 0.00 0.01 0.00 91 1010.5
20260505013420 51 0 0.0 0.0 0.00 0.01 0.00 90 1010.5
20260505012920 51 0 0.0 0.0 0.00 0.01 0.00 90 1010.5
20260505012420 51 0 0.0 0.0 0.00 0.01 0.00 90 1010.5
20260505011920 51 0 0.0 0.0 0.00 0.01 0.00 90 1010.5
20260505011420 51 0 0.0 0.0 0.00 0.01 0.00 89 1010.5
20260505010920 51 0 0.0 0.0 0.00 0.01 0.00 89 1010.6
20260505010420 51 0 0.0 0.0 0.00 0.01 0.00 89 1010.6
20260505010050 51 0 0.0 0.0 0.00 0.01 0.00 89 1010.8
20260505005920 51 0 0.0 0.0 0.00 0.01 0.00 89 1010.8
20260505005420 51 0 0.0 0.0 0.00 0.01 0.00 89 1010.8
20260505004920 51 0 0.0 1.7 0.00 0.01 0.00 88 1010.7
20260505004420 51 239 0.0 0.0 0.00 0.01 0.00 88 1010.8
20260505003920 51 239 0.0 0.0 0.00 0.01 0.00 87 1011.0
20260505003420 51 239 0.0 0.0 0.00 0.01 0.00 84 1011.1
20260505002920 52 239 0.0 0.0 0.00 0.01 0.00 82 1011.1
20260505002420 52 239 0.0 0.9 0.00 0.01 0.00 82 1011.1
20260505001920 52 210 0.9 1.7 0.00 0.01 0.00 81 1011.1
20260505001420 53 260 0.9 0.9 0.00 0.01 0.00 80 1011.0
20260505000920 52 2 0.0 0.0 0.00 0.01 0.00 80 1011.1
20260505000420 52 2 0.0 0.9 0.00 0.01 0.00 80 1011.2
20260504235920 52 2 0.0 0.0 0.00 0.01 0.00 81 1011.2
20260504235420 52 2 0.0 0.0 0.00 0.01 0.00 81 1011.3
20260504234920 52 2 0.0 0.0 0.00 0.01 0.00 80 1011.2
20260504234420 52 2 0.0 0.0 0.00 0.01 0.00 80 1011.2
20260504233920 52 2 0.0 0.0 0.00 0.01 0.00 80 1011.3
20260504233420 52 341 0.0 0.9 0.00 0.01 0.00 80 1011.2
20260504232920 52 336 0.0 0.0 0.00 0.01 0.00 81 1011.3
20260504232420 52 336 0.0 0.0 0.00 0.01 0.00 81 1011.3
20260504231920 52 343 0.0 0.9 0.00 0.01 0.00 81 1011.4
20260504231420 52 357 0.0 0.0 0.00 0.01 0.00 81 1011.4
20260504230920 52 357 0.0 0.9 0.00 0.01 0.00 81 1011.4
20260504230420 52 338 0.0 0.0 0.00 0.01 0.00 82 1011.6
20260504225920 52 338 0.0 0.0 0.00 0.01 0.00 82 1011.6
20260504225420 52 338 0.0 0.9 0.00 0.01 0.00 81 1011.7
20260504224920 52 15 0.0 0.0 0.00 0.01 0.00 82 1011.7
20260504224420 52 15 0.0 0.9 0.00 0.01 0.00 81 1011.7
20260504223920 52 336 0.9 0.9 0.00 0.01 0.00 81 1011.7
20260504223420 51 358 0.0 0.0 0.00 0.01 0.00 81 1011.7
20260504222920 52 347 0.0 0.0 0.00 0.01 0.00 82 1011.7
20260504222420 51 322 0.0 0.9 0.00 0.01 0.00 83 1011.7
20260504221920 51 357 0.0 0.0 0.00 0.01 0.00 83 1011.8
20260504221424 51 357 0.0 0.0 0.00 0.01 0.00 83 1011.8
20260504221420 51 357 0.0 0.0 0.00 0.01 0.00 83 1011.8
20260504220920 52 357 0.0 0.0 0.00 0.01 0.00 83 1011.9
20260504220420 51 357 0.0 0.0 0.00 0.01 0.00 83 1011.9
20260504215923 51 357 0.0 0.0 0.00 0.01 0.00 84 1011.9
20260504215920 51 357 0.0 0.0 0.00 0.01 0.00 84 1011.9
20260504215420 51 357 0.0 0.0 0.00 0.01 0.01 84 1012.0
20260504214920 51 357 0.0 0.0 0.00 0.01 0.01 84 1012.0
20260504214420 51 333 0.0 0.0 0.00 0.01 0.01 86 1012.1
20260504213920 51 333 0.0 0.0 0.00 0.01 0.01 88 1012.1
20260504213420 50 333 0.0 0.0 0.00 0.01 0.01 90 1012.2
20260504212920 50 333 0.0 1.7 0.00 0.01 0.01 90 1012.3
20260504212420 50 343 0.9 2.6 0.00 0.01 0.01 91 1012.2
20260504211920 50 333 1.7 1.7 0.00 0.01 0.01 90 1012.3
20260504211424 51 316 0.0 0.0 0.00 0.01 0.01 90 1012.3
20260504211420 51 316 0.0 0.0 0.00 0.01 0.01 90 1012.3
20260504210920 51 316 0.0 0.0 0.00 0.01 0.01 91 1012.4
20260504210420 51 316 0.0 0.0 0.00 0.01 0.01 91 1012.4
20260504205924 51 316 0.0 1.7 0.00 0.01 0.01 89 1012.5
20260504205920 51 316 0.0 1.7 0.00 0.01 0.01 89 1012.5
20260504205420 52 341 0.0 0.0 0.00 0.01 0.01 89 1012.6
20260504204920 52 341 0.0 1.7 0.00 0.01 0.01 89 1012.6
20260504204425 52 352 0.9 2.6 0.00 0.01 0.01 89 1012.6
20260504204420 52 352 0.9 2.6 0.00 0.01 0.01 89 1012.6
20260504203920 52 333 1.7 3.5 0.00 0.01 0.01 89 1012.5
20260504203420 52 324 2.6 3.5 0.00 0.01 0.01 89 1012.5
20260504202920 52 326 2.6 2.6 0.00 0.01 0.01 90 1012.5
20260504202420 53 331 0.9 0.9 0.00 0.01 0.01 91 1012.6
20260504201920 53 333 0.0 0.0 0.00 0.01 0.01 91 1012.6
20260504201420 53 333 0.0 0.0 0.00 0.01 0.01 92 1012.7
20260504200920 53 333 0.0 0.0 0.00 0.01 0.01 94 1012.7
20260504200420 53 333 0.0 0.0 0.00 0.01 0.01 95 1012.7
20260504195920 53 333 0.0 2.6 0.00 0.01 0.01 95 1012.7
20260504195420 53 341 1.7 2.6 0.00 0.01 0.01 96 1012.6
20260504194920 53 350 0.0 2.6 0.00 0.01 0.01 96 1012.6
20260504194424 53 2 0.0 0.0 0.00 0.01 0.01 96 1012.5
20260504194420 53 2 0.0 0.0 0.00 0.01 0.01 96 1012.5
20260504193920 54 2 0.0 0.0 0.00 0.01 0.01 97 1012.5
20260504193420 54 2 0.0 0.0 0.00 0.01 0.01 97 1012.5
20260504192920 54 2 0.0 0.0 0.00 0.01 0.01 97 1012.4
20260504192420 53 2 0.0 2.6 0.00 0.01 0.01 96 1012.3
20260504191920 53 340 0.9 1.7 0.00 0.01 0.01 96 1012.3
20260504191424 54 331 0.0 3.5 0.00 0.01 0.01 96 1012.3
20260504191420 54 331 0.0 3.5 0.00 0.01 0.01 96 1012.3
20260504190920 54 336 2.6 3.5 0.00 0.01 0.01 96 1012.2
20260504190420 54 343 1.7 1.7 0.00 0.01 0.01 96 1012.2
20260504185920 54 347 0.0 0.0 0.00 0.01 0.01 94 1012.2
20260504185420 54 334 0.0 0.0 0.00 0.01 0.01 93 1012.3
20260504184920 55 334 0.0 0.0 0.00 0.01 0.01 92 1012.3